CW5920 Weather Reports


time (UTC)temp
C
wind
direction
speed
KPH
gust
KPH
rain 1hr
cm
rain 24hr
cm
rain mn
cm
humidity
%
barometer
mb
20260831214017 36 113 14.5 22.5 0.00 0.00 0.00 33 1013.9
20260831213015 37 113 11.3 19.3 0.00 0.00 0.00 32 1013.9
20260831212037 37 113 16.1 25.7 0.00 0.00 0.00 33 1014.1
20260831211015 36 113 11.3 20.9 0.00 0.00 0.00 34 1014.2
20260831210017 37 90 11.3 24.1 0.00 0.00 0.00 33 1014.3
20260831205015 37 68 12.9 22.5 0.00 0.00 0.00 32 1014.5
20260831204017 37 113 16.1 32.2 0.00 0.00 0.00 33 1014.6
20260831203017 37 135 14.5 24.1 0.00 0.00 0.00 33 1014.9
20260831202017 37 158 6.4 22.5 0.00 0.00 0.00 33 1014.9
20260831201017 37 158 8.0 30.6 0.00 0.00 0.00 35 1015.1
20260831200017 36 135 12.9 22.5 0.00 0.00 0.00 35 1015.2
20260831195017 37 90 11.3 22.5 0.00 0.00 0.00 34 1015.3
20260831194017 37 113 12.9 20.9 0.00 0.00 0.00 35 1015.3
20260831193037 36 113 8.0 20.9 0.00 0.00 0.00 37 1015.5
20260831192017 36 135 19.3 37.0 0.00 0.00 0.00 36 1015.7
20260831191037 37 113 14.5 27.4 0.00 0.00 0.00 37 1015.8
20260831190017 37 135 19.3 33.8 0.00 0.00 0.00 36 1015.9
20260831185017 37 113 17.7 24.1 0.00 0.00 0.00 36 1016.0
20260831184017 37 135 16.1 24.1 0.00 0.00 0.00 36 1016.1
20260831183017 37 135 17.7 30.6 0.00 0.00 0.00 36 1016.1
20260831182017 36 135 11.3 24.1 0.00 0.00 0.00 38 1016.2
20260831181017 36 135 17.7 32.2 0.00 0.00 0.00 37 1016.5
20260831180017 36 203 4.8 22.5 0.00 0.00 0.00 38 1016.6
20260831175017 36 158 9.7 27.4 0.00 0.00 0.00 37 1016.9
20260831174017 36 113 4.8 16.1 0.00 0.00 0.00 38 1017.1
20260831173017 36 135 11.3 30.6 0.00 0.00 0.00 39 1017.2
20260831172037 36 135 9.7 19.3 0.00 0.00 0.00 39 1017.2
20260831171037 35 135 12.9 22.5 0.00 0.00 0.00 40 1017.3
20260831170017 35 158 9.7 20.9 0.00 0.00 0.00 39 1017.4
20260831165017 35 135 11.3 20.9 0.00 0.00 0.00 40 1017.4
20260831164017 35 135 3.2 20.9 0.00 0.00 0.00 40 1017.3
20260831163017 35 158 8.0 17.7 0.00 0.00 0.00 41 1017.3
20260831162017 34 158 4.8 16.1 0.00 0.00 0.00 43 1017.3
20260831161037 34 135 4.8 17.7 0.00 0.00 0.00 44 1017.2
20260831160017 33 158 6.4 19.3 0.00 0.00 0.00 45 1017.2
20260831155017 33 158 1.6 20.9 0.00 0.00 0.00 47 1017.2
20260831154017 33 158 4.8 16.1 0.00 0.00 0.00 50 1017.2
20260831153017 32 158 3.2 12.9 0.00 0.00 0.00 52 1017.1
20260831152037 32 158 4.8 16.1 0.00 0.00 0.00 54 1017.0
20260831151037 31 158 1.6 8.0 0.00 0.00 0.00 56 1017.0
20260831150017 31 158 3.2 22.5 0.00 0.00 0.00 60 1017.0
20260831145037 30 225 1.6 4.8 0.00 0.00 0.00 61 1016.9
20260831144017 30 203 1.6 9.7 0.00 0.00 0.00 63 1016.9
20260831143017 29 180 3.2 16.1 0.00 0.00 0.00 64 1016.9
20260831142037 29 158 4.8 16.1 0.00 0.00 0.00 66 1016.9
20260831141017 28 158 3.2 17.7 0.00 0.00 0.00 68 1016.9
20260831140017 28 158 6.4 16.1 0.00 0.00 0.00 70 1016.9
20260831135037 27 158 4.8 9.7 0.00 0.00 0.00 72 1016.8
20260831134017 27 158 6.4 19.3 0.00 0.00 0.00 73 1016.7
20260831133017 27 158 6.4 16.1 0.00 0.00 0.00 74 1016.6
20260831132037 27 158 8.0 17.7 0.00 0.00 0.00 75 1016.3
20260831131017 26 158 8.0 20.9 0.00 0.00 0.00 76 1016.3
20260831130017 26 158 8.0 19.3 0.00 0.00 0.00 77 1016.2
20260831125017 26 158 8.0 17.7 0.00 0.00 0.00 78 1016.1
20260831124017 26 158 4.8 12.9 0.00 0.00 0.00 78 1015.8
20260831123017 25 158 4.8 11.3 0.00 0.00 0.00 78 1015.8
20260831122017 25 158 4.8 12.9 0.00 0.00 0.00 78 1015.7
20260831121117 25 158 4.8 9.7 0.00 0.00 0.00 77 1015.6
20260831120017 25 158 4.8 12.9 0.00 0.00 0.00 77 1015.5
20260831115017 26 158 6.4 16.1 0.00 0.00 0.00 77 1015.3
20260831114017 26 158 6.4 17.7 0.00 0.00 0.00 77 1015.3
20260831113017 26 158 4.8 11.3 0.00 0.00 0.00 76 1015.2
20260831112017 26 158 6.4 14.5 0.00 0.00 0.00 76 1015.2
20260831111017 26 158 4.8 11.3 0.00 0.00 0.00 75 1015.0
20260831110017 26 158 8.0 16.1 0.00 0.00 0.00 75 1015.0
20260831105017 26 158 8.0 16.1 0.00 0.00 0.00 74 1015.0
20260831104017 26 158 3.2 9.7 0.00 0.00 0.00 73 1015.0
20260831103017 26 158 3.2 12.9 0.00 0.00 0.00 73 1015.0
20260831102017 26 158 4.8 12.9 0.00 0.00 0.00 72 1015.1
20260831101017 26 158 6.4 14.5 0.00 0.00 0.00 72 1015.1
20260831100017 27 180 3.2 9.7 0.00 0.00 0.00 71 1015.0
20260831095017 27 158 8.0 14.5 0.00 0.00 0.00 71 1015.0
20260831094037 27 158 6.4 16.1 0.00 0.00 0.00 70 1015.0
20260831093017 27 158 4.8 12.9 0.00 0.00 0.00 69 1015.0
20260831092017 27 158 6.4 12.9 0.00 0.00 0.00 69 1014.9
20260831091017 27 158 4.8 12.9 0.00 0.00 0.00 68 1014.9
20260831090017 27 158 3.2 12.9 0.00 0.00 0.00 67 1014.8
20260831085016 27 158 3.2 16.1 0.00 0.00 0.00 67 1014.8
20260831084036 27 158 3.2 12.9 0.00 0.00 0.00 66 1014.8
20260831083016 27 158 1.6 9.7 0.00 0.00 0.00 66 1014.7
20260831082036 27 158 1.6 9.7 0.00 0.00 0.00 65 1014.8
20260831081116 28 158 3.2 14.5 0.00 0.00 0.00 64 1014.8
20260831080016 28 180 3.2 14.5 0.00 0.00 0.00 63 1014.9
20260831075016 28 158 6.4 16.1 0.00 0.00 0.00 63 1014.8
20260831074016 28 158 3.2 20.9 0.00 0.00 0.00 62 1014.8
20260831073056 28 158 6.4 17.7 0.00 0.00 0.00 61 1014.8
20260831072016 28 158 4.8 16.1 0.00 0.00 0.00 60 1014.8
20260831071056 29 158 6.4 20.9 0.00 0.00 0.00 58 1014.8
20260831070056 29 158 11.3 22.5 0.00 0.00 0.00 57 1014.8
20260831065016 29 158 4.8 19.3 0.00 0.00 0.00 55 1014.9
20260831064036 30 158 8.0 19.3 0.00 0.00 0.00 54 1015.0
20260831063036 30 158 9.7 20.9 0.00 0.00 0.00 54 1015.0
20260831062016 30 158 11.3 25.7 0.00 0.00 0.00 53 1015.0
20260831061015 30 158 12.9 19.3 0.00 0.00 0.00 52 1014.9
20260831060016 30 158 6.4 14.5 0.00 0.00 0.00 51 1014.9
20260831055016 30 158 6.4 14.5 0.00 0.00 0.00 50 1015.0
20260831054016 30 158 11.3 19.3 0.00 0.00 0.00 50 1015.0
20260831053016 30 158 9.7 17.7 0.00 0.00 0.00 49 1014.9
20260831052016 30 158 9.7 22.5 0.00 0.00 0.00 48 1014.7
20260831051016 31 158 9.7 16.1 0.00 0.00 0.00 47 1014.7
20260831050016 31 158 8.0 16.1 0.00 0.00 0.00 47 1014.8
20260831045016 31 158 8.0 14.5 0.00 0.00 0.00 47 1014.7
20260831044016 31 135 9.7 14.5 0.00 0.00 0.00 47 1014.6
20260831043016 30 158 9.7 17.7 0.00 0.00 0.00 47 1014.6
20260831042016 30 158 8.0 17.7 0.00 0.00 0.00 48 1014.5
20260831040016 30 135 4.8 11.3 0.00 0.00 0.00 48 1014.5
20260831035016 30 135 3.2 8.0 0.00 0.00 0.00 48 1014.4
20260831034016 30 135 3.2 4.8 0.00 0.00 0.00 47 1014.2
20260831033016 30 135 1.6 4.8 0.00 0.00 0.00 45 1014.1
20260831032016 31 135 4.8 6.4 0.00 0.00 0.00 45 1014.1
20260831031015 31 158 1.6 4.8 0.00 0.00 0.00 44 1014.0
20260831030016 31 158 3.2 9.7 0.00 0.00 0.00 43 1013.9
20260831025016 31 135 4.8 8.0 0.00 0.00 0.00 43 1013.7
20260831024016 31 158 6.4 9.7 0.00 0.00 0.00 42 1013.6
20260831023016 31 135 4.8 9.7 0.00 0.00 0.00 42 1013.4
20260831022016 31 158 3.2 8.0 0.00 0.00 0.00 41 1013.3
20260831021016 32 158 1.6 4.8 0.00 0.00 0.00 40 1013.2
20260831020015 32 0.0 3.2 0.00 0.00 0.00 39 1013.0
20260831015016 32 0.0 1.6 0.00 0.00 0.00 38 1013.0
20260831014055 33 158 3.2 8.0 0.00 0.00 0.00 38 1012.6
20260831013016 33 158 3.2 8.0 0.00 0.00 0.00 37 1012.6
20260831012016 33 158 4.8 9.7 0.00 0.00 0.00 35 1012.6
20260831011016 33 158 4.8 12.9 0.00 0.00 0.00 35 1012.5
20260831010056 34 158 3.2 8.0 0.00 0.00 0.00 34 1012.5
20260831005015 35 158 4.8 9.7 0.00 0.00 0.00 34 1012.4
20260831004016 35 158 6.4 12.9 0.00 0.00 0.00 34 1012.5
20260831003016 35 135 4.8 8.0 0.00 0.00 0.00 33 1012.4
20260831002016 35 135 8.0 14.5 0.00 0.00 0.00 32 1012.5
20260831001036 35 135 9.7 16.1 0.00 0.00 0.00 32 1012.4
20260831000015 36 113 12.9 19.3 0.00 0.00 0.00 31 1012.6
20260830235015 36 135 11.3 17.7 0.00 0.00 0.00 31 1012.5
20260830234016 36 135 12.9 20.9 0.00 0.00 0.00 31 1012.6
20260830233016 36 135 14.5 25.7 0.00 0.00 0.00 32 1012.7
20260830232016 36 135 16.1 24.1 0.00 0.00 0.00 32 1012.7
20260830231016 36 135 12.9 24.1 0.00 0.00 0.00 32 1012.6
20260830230016 36 135 14.5 25.7 0.00 0.00 0.00 31 1012.7
20260830225036 36 113 14.5 24.1 0.00 0.00 0.00 31 1012.7
20260830224015 36 135 14.5 22.5 0.00 0.00 0.00 31 1012.8
20260830223016 37 135 14.5 25.7 0.00 0.00 0.00 30 1012.8
20260830222016 37 135 19.3 29.0 0.00 0.00 0.00 30 1012.9
20260830221035 37 135 11.3 17.7 0.00 0.00 0.00 28 1012.8
20260830220015 37 135 8.0 22.5 0.00 0.00 0.00 29 1012.9
20260830215035 37 113 16.1 25.7 0.00 0.00 0.00 28 1012.9